星链-31790 (STARLINK-31790 )

导读

STARLINK-31790是美国于2024年5月3日发射的星链卫星,隶属于SpaceX公司的星链星座项目。星链项目旨在构建全球卫星互联网星座,为全球各地用户提供高速低延迟宽带网络服务。该卫星入轨后,将助力进一步扩展星链星座的全球覆盖范围,提升星座整体服务能力。

Basic Information
目录编号:
59648
目录名称:
STARLINK-31790
国际标识:
2024-082T
轨道中心:
EARTH
卫星名称:
星链-31790
卫星全名:
星链-31790 (STARLINK-31790 )
卫星状态:
已陨落 最后检测时间 2025-08-21
发射日期:
2024-05-03 UTC
国别 :
美国 (US)
星等 :
--
Orbit Information
数据来源 国际轨道数据
星历时间: 2025-08-21T04:00:02+0800
轨道信息已过期301天
半长轴: 6625.178km
偏心率: 0.0024164
轨道倾角: 42.979°
近地点辐角 250.549°
升交点赤经 115.456°
平近点角 134.129°
近地点: 231.033km
远地点: 263.053km
周期: 89.445分钟
每日圈数: 16.099282
Detailed Information
固有亮度:
5
最大亮度:
1.5
卫星平台:
Starlink v2.0 mini
覆盖范围:
全球
运营商:
太空探索技术公司
运营商所在国:
美国
制造商(研发单位):
太空探索技术公司
制造商所在国:
美国
使用方式:
暂无
Satellite Introduction
星链(Starlink)计划是由太空探索技术公司(SpaceX)提出的一个巨型低轨卫星互联网星座项目,计划在2019年至2024年间在太空搭建由约1.2万颗卫星组成的“星链”网络,其中1584颗将部署在地球上空550千米处的近地轨道,并从2020年开始工作。该卫星仍在工作。